Location: Juzet
(42.9779°N, 0.7597°E)
Time: 18:02:28
(UTC+00:00)

NPP - Pass Details

Date: 14 July 2020
Orbit: 826 x 828 km, 98.7° (Epoch: 13 August)

Event Time Altitude Azimuth Distance (km) Brightness Sun altitude
Rises 01:19:23 0° 18° (NNE) 3,375 8.3 -23.0°
Reaches altitude 10° 01:21:49 10° 24° (NNE) 2,437 7.2 -22.9°
Maximum altitude 01:27:05 52° 100° (E) 1,021 4.1 -22.5°
Enters shadow 01:28:51 37° 152° (SSE) 1,262 4.3 -22.4°
